User: anonymous   Login
Location: Iesi
(43.5167°N, 13.2333°E)
Time: 18:29:30
(UTC+00:00)
Language:

Meteor 1-19 Rocket - Orbit

View from above orbital plane
View from above orbital plane
View from above satellite
View from above satellite

Ground track
Ground track

The orbit data is extracted from the following two-line orbital elements,

1  7493U 74083B   20298.53357819  .00000082  00000-0  40786-4 0  9996
2  7493  81.1648  42.1308 0078810 259.1428 100.0864 14.07585059361199
Epoch (UTC): 24 October 2020 12:48:21
Eccentricity: 0.0078810
inclination: 81.1648°
perigee height: 810 km
apogee height: 925 km
right ascension of ascending node: 42.1308°
argument of perigee: 259.1428°
revolutions per day: 14.07585059
mean anomaly at epoch: 100.0864°
orbit number at epoch: 36119

The dashed part of the orbit path shows where the satellite is in the earth's shadow,  

DLR